Flag for Brazil Weather past 2 weeks in Brasilia, Distrito Federal, Brazil

Now
79 °F

Clear.


Feels Like: 78 °F
Forecast: N/A
Wind: 9 mph from Southeast

Location: Brasilia Aeroporto

Current Time: Aug 22, 2014 at 7:38:32 PM

Latest Report: Aug 22, 2014 at 7:00 PM


Visibility: 10 mi

Pressure: 30.09 "Hg

Humidity: 26%

Dew point: 41 °F

Location of BrasiliaLocation

Historic Weather in Brasilia — Graph

°F

Brasilia temperature yesterday

Maximum temperature yesterday: 82 °F (at 3:00 PM)
Minimum temperature yesterday: 59 °F (at 3:00 AM)
Average temperature yesterday: 72 °F

Past Weeks' High & Low Weather Summary

 TemperatureHumidityPressure
High86 °F (Aug 13, 2:00 PM)77% (Aug 11, 4:00 AM)30.36 "Hg (Aug 11, 4:00 AM)
Low50 °F (Aug 9, 7:00 AM)12% (Aug 8, 4:00 PM)30.09 "Hg (Aug 10, 4:00 PM)
Average70 °F43%30.20 "Hg
* Reported Aug 7 6:00 PM — Aug 22 6:00 PM, Brasilia, Weather by CustomWeather, © 2014

Note: Actual official high and low records may vary slightly from our data, if they occured in-between our weather recording intervals... More about our weather records

Advertising

Brasilia weather history for previous 24 hours

 ConditionsComfort  
Time TempWeatherWind HumidityBarometerVisibility
6:00 PM
Aug 22
82 °FSunny.8 mph21%30.09 "Hg10 mi
5:00 PM84 °FSunny.10 mph19%30.09 "Hg10 mi
4:00 PM84 °FSunny.7 mph19%30.09 "Hg10 mi
3:00 PM84 °FSunny.8 mph20%30.09 "Hg10 mi
2:00 PM82 °FSunny.8 mph23%30.12 "Hg10 mi
1:00 PM81 °FSunny.9 mph26%30.15 "Hg10 mi
12:00 PM79 °FSunny.8 mph28%30.21 "Hg10 mi
11:00 AM79 °FSunny.8 mph28%30.24 "Hg10 mi
10:00 AM77 °FSunny.13 mph32%30.24 "Hg10 mi
9:00 AM68 °FSunny.No wind49%30.24 "Hg10 mi
8:00 AM64 °FSunny.No wind60%30.21 "Hg10 mi
7:00 AM57 °FSunny.No wind67%30.21 "Hg10 mi
6:00 AM57 °FClear.2 mph67%30.18 "Hg10 mi
5:00 AM55 °FClear.No wind72%30.18 "Hg10 mi
4:00 AM59 °FClear.2 mph63%30.18 "Hg10 mi
3:00 AM59 °FClear.3 mph63%30.18 "Hg10 mi
2:00 AM63 °FClear.3 mph56%30.18 "Hg10 mi
1:00 AM64 °FClear.5 mph52%30.21 "Hg10 mi
12:00 AM64 °FClear.2 mph52%30.21 "Hg10 mi
11:00 PM
Aug 21
70 °FClear.2 mph43%30.21 "Hg10 mi
10:00 PM70 °FClear.No wind46%30.21 "Hg10 mi
9:00 PM72 °FClear.2 mph41%30.21 "Hg10 mi
8:00 PM75 °FClear.3 mph36%30.18 "Hg10 mi
7:00 PM77 °FClear.6 mph34%30.15 "Hg10 mi
Weather by CustomWeather, © 2014

See weather overviewHow to use our weather pages